DW5852 Weather Reports


Display with metric or nautical units.
time (UTC)temp
F
wind
direction
speed
MPH
gust
MPH
rain 1hr
in
rain 24hr
in
rain mn
in
humidity
%
barometer
mb
20211025231212 68 207 3.0 12.0 0.00 0.00 0.00 23 1023.7
20211025230712 68 134 4.0 12.0 0.00 0.00 0.00 23 1023.6
20211025230210 68 139 10.0 13.0 0.00 0.00 0.00 23 1023.5
20211025225708 69 173 4.0 13.0 0.00 0.00 0.00 23 1023.4
20211025225208 69 219 5.0 14.0 0.00 0.00 0.00 23 1023.4
20211025224708 68 244 8.0 14.0 0.00 0.00 0.00 23 1023.4
20211025224212 69 158 9.0 16.0 0.00 0.00 0.00 23 1023.4
20211025223708 69 171 2.0 14.0 0.00 0.00 0.00 23 1023.3
20211025223208 69 203 6.0 13.0 0.00 0.00 0.00 23 1023.3
20211025222734 69 169 3.0 11.0 0.00 0.00 0.00 23 1023.2
20211025222217 69 156 5.0 15.0 0.00 0.00 0.00 23 1023.1
20211025221707 68 187 8.0 17.0 0.00 0.00 0.00 23 1023.1
20211025221208 69 191 6.0 17.0 0.00 0.00 0.00 22 1023.0
20211025220708 69 166 6.0 12.0 0.00 0.00 0.00 23 1022.9
20211025220208 69 160 8.0 13.0 0.00 0.00 0.00 23 1022.8
20211025215707 69 172 6.0 12.0 0.00 0.00 0.00 23 1022.8
20211025215208 69 167 5.0 12.0 0.00 0.00 0.00 23 1022.8
20211025214712 69 163 9.0 20.0 0.00 0.00 0.00 23 1022.8
20211025214208 69 186 7.0 18.0 0.00 0.00 0.00 22 1022.6
20211025213708 69 156 5.0 11.0 0.00 0.00 0.00 23 1022.7
20211025213208 69 180 7.0 9.0 0.00 0.00 0.00 23 1022.7
20211025212708 69 185 5.0 16.0 0.00 0.00 0.00 24 1022.6
20211025211710 68 113 5.0 16.0 0.00 0.00 0.00 25 1022.5
20211025211207 68 139 7.0 18.0 0.00 0.00 0.00 24 1022.5
20211025210708 68 172 3.0 15.0 0.00 0.00 0.00 25 1022.6
20211025210214 68 205 6.0 16.0 0.00 0.00 0.00 25 1022.5
20211025205708 68 167 5.0 17.0 0.00 0.00 0.00 25 1022.5
20211025205217 68 152 8.0 19.0 0.00 0.00 0.00 25 1022.5
20211025204707 68 242 3.0 15.0 0.00 0.00 0.00 25 1022.4
20211025204208 68 162 7.0 14.0 0.00 0.00 0.00 25 1022.5
20211025203709 68 203 4.0 11.0 0.00 0.00 0.00 25 1022.5
20211025203208 68 143 4.0 13.0 0.00 0.00 0.00 25 1022.5
20211025202716 68 145 7.0 16.0 0.00 0.00 0.00 26 1022.5
20211025202212 68 194 5.0 15.0 0.00 0.00 0.00 26 1022.6
20211025201708 68 170 3.0 14.0 0.00 0.00 0.00 25 1022.6
20211025201208 68 131 3.0 6.0 0.00 0.00 0.00 26 1022.6
20211025200713 67 163 5.0 9.0 0.00 0.00 0.00 27 1022.7
20211025200210 67 170 2.0 9.0 0.00 0.00 0.00 26 1022.6
20211025195741 67 143 4.0 10.0 0.00 0.00 0.00 26 1022.7
20211025195258 67 200 0.0 11.0 0.00 0.00 0.00 26 1022.6
20211025194713 68 150 5.0 12.0 0.00 0.00 0.00 26 1022.7
20211025194208 67 167 4.0 10.0 0.00 0.00 0.00 26 1022.8
20211025193712 67 166 4.0 7.0 0.00 0.00 0.00 27 1022.8
20211025192749 67 162 6.0 10.0 0.00 0.00 0.00 27 1022.9
20211025192208 67 61 1.0 6.0 0.00 0.00 0.00 27 1022.9
20211025191708 66 150 5.0 7.0 0.00 0.00 0.00 28 1023.0
20211025191208 66 149 5.0 5.0 0.00 0.00 0.00 28 1023.0
20211025190712 66 84 5.0 6.0 0.00 0.00 0.00 28 1023.2
20211025190207 65 77 0.0 9.0 0.00 0.00 0.00 28 1023.2
20211025185716 65 89 7.0 8.0 0.00 0.00 0.00 28 1023.3
20211025185208 65 148 2.0 7.0 0.00 0.00 0.00 28 1023.5
20211025184708 65 184 3.0 8.0 0.00 0.00 0.00 29 1023.5
20211025184213 65 94 5.0 10.0 0.00 0.00 0.00 28 1023.5
20211025183707 65 82 0.0 9.0 0.00 0.00 0.00 28 1023.6
20211025183213 65 207 4.0 9.0 0.00 0.00 0.00 27 1023.6
20211025182723 65 176 3.0 5.0 0.00 0.00 0.00 27 1023.7
20211025182213 65 172 0.0 5.0 0.00 0.00 0.00 27 1023.7
20211025181707 65 200 0.0 7.0 0.00 0.00 0.00 27 1023.8
20211025181207 65 172 3.0 3.0 0.00 0.00 0.00 28 1023.8
20211025180749 65 99 1.0 4.0 0.00 0.00 0.00 27 1023.9
20211025180207 65 145 1.0 6.0 0.00 0.00 0.00 27 1024.0
20211025175735 64 200 0.0 3.0 0.00 0.00 0.00 29 1024.0
20211025175213 63 166 0.0 2.0 0.00 0.00 0.00 30 1024.1
20211025174722 63 252 0.0 3.0 0.00 0.00 0.00 29 1024.0
20211025174359 63 150 1.0 5.0 0.00 0.00 0.00 30 1024.0
20211025173801 63 156 1.0 4.0 0.00 0.00 0.00 30 1024.0
20211025173301 63 197 1.0 4.0 0.00 0.00 0.00 30 1024.0
20211025172814 62 150 0.0 1.0 0.00 0.00 0.00 31 1024.0
20211025172301 61 142 1.0 1.0 0.00 0.00 0.00 32 1024.0
20211025171812 60 76 0.0 3.0 0.00 0.00 0.00 32 1024.0
20211025171301 60 145 0.0 4.0 0.00 0.00 0.00 33 1023.9
20211025170809 60 84 0.0 4.0 0.00 0.00 0.00 32 1024.0
20211025170302 60 134 0.0 2.0 0.00 0.00 0.00 33 1024.0
20211025165842 60 97 0.0 2.0 0.00 0.00 0.00 33 1024.0
20211025165301 58 104 0.0 3.0 0.00 0.00 0.00 34 1023.9
20211025164828 58 79 1.0 3.0 0.00 0.00 0.00 34 1023.8
20211025164305 58 359 3.0 3.0 0.00 0.00 0.00 34 1023.9
20211025163827 57 330 0.0 3.0 0.00 0.00 0.00 35 1023.8
20211025163301 56 43 1.0 4.0 0.00 0.00 0.00 35 1023.9
20211025162816 56 46 0.0 3.0 0.00 0.00 0.00 36 1023.9
20211025162301 55 25 1.0 5.0 0.00 0.00 0.00 37 1023.9
20211025161802 55 101 0.0 3.0 0.00 0.00 0.00 37 1024.0
20211025161318 55 38 0.0 3.0 0.00 0.00 0.00 37 1024.0
20211025160801 55 86 0.0 4.0 0.00 0.00 0.00 38 1024.1
20211025160316 55 55 2.0 6.0 0.00 0.00 0.00 37 1024.1
20211025155806 55 65 0.0 2.0 0.00 0.00 0.00 38 1024.2
20211025155301 55 104 2.0 3.0 0.00 0.00 0.00 38 1024.2
20211025154801 55 62 0.0 2.0 0.00 0.00 0.00 38 1024.3
20211025154301 54 80 0.0 2.0 0.00 0.00 0.00 39 1024.3
20211025153808 54 104 0.0 2.0 0.00 0.00 0.00 39 1024.5
20211025153302 54 65 1.0 2.0 0.00 0.00 0.00 38 1024.4
20211025152801 54 35 1.0 2.0 0.00 0.00 0.00 38 1024.4
20211025152306 54 101 0.0 1.0 0.00 0.00 0.00 40 1024.5
20211025151806 53 68 0.0 3.0 0.00 0.00 0.00 40 1024.5
20211025151301 53 91 0.0 2.0 0.00 0.00 0.00 39 1024.4
20211025150813 53 9 0.0 2.0 0.00 0.00 0.00 39 1024.4
20211025150314 52 338 0.0 1.0 0.00 0.00 0.00 40 1024.4
20211025145801 52 9 0.0 2.0 0.00 0.00 0.00 41 1024.4
20211025145306 51 71 0.0 1.0 0.00 0.00 0.00 41 1024.4
20211025144801 51 19 0.0 1.0 0.00 0.00 0.00 40 1024.4
20211025144306 51 325 0.0 4.0 0.00 0.00 0.00 40 1024.5
20211025143803 52 281 0.0 1.0 0.00 0.00 0.00 40 1024.5
20211025143310 51 73 0.0 2.0 0.00 0.00 0.00 41 1024.4
20211025142806 51 15 0.0 1.0 0.00 0.00 0.00 41 1024.5
20211025142301 50 110 0.0 0.0 0.00 0.00 0.00 42 1024.4
20211025141801 50 20 0.0 0.0 0.00 0.00 0.00 43 1024.4
20211025141320 48 36 0.0 0.0 0.00 0.00 0.00 45 1024.4
20211025140801 47 37 0.0 0.0 0.00 0.00 0.00 45 1024.3
20211025140311 48 49 0.0 0.0 0.00 0.00 0.00 45 1024.3
20211025135853 47 26 0.0 1.0 0.00 0.00 0.00 45 1024.3
20211025135254 47 60 0.0 0.0 0.00 0.00 0.00 45 1024.3
20211025134754 47 40 0.0 0.0 0.00 0.00 0.00 45 1024.3
20211025134254 47 43 0.0 0.0 0.00 0.00 0.00 46 1024.4
20211025133755 47 6 0.0 1.0 0.00 0.00 0.00 45 1024.4
20211025133254 47 18 0.0 0.0 0.00 0.00 0.00 45 1024.4
20211025132833 47 62 0.0 0.0 0.00 0.00 0.00 45 1024.4
20211025132254 47 62 0.0 0.0 0.00 0.00 0.00 46 1024.4
20211025131754 47 49 0.0 0.0 0.00 0.00 0.00 46 1024.5
20211025131254 47 14 0.0 0.0 0.00 0.00 0.00 46 1024.4
20211025130754 47 15 0.0 0.0 0.00 0.00 0.00 46 1024.5
20211025130337 47 15 0.0 0.0 0.00 0.00 0.00 46 1024.5
20211025125754 47 15 0.0 0.0 0.00 0.00 0.00 46 1024.6
20211025125254 46 357 0.0 1.0 0.00 0.00 0.00 46 1024.7
20211025124801 47 63 0.0 0.0 0.00 0.00 0.00 45 1024.6
20211025124254 48 63 0.0 0.0 0.00 0.00 0.00 44 1024.7
20211025123846 48 16 0.0 0.0 0.00 0.00 0.00 44 1024.6
20211025123315 48 18 0.0 1.0 0.00 0.00 0.00 43 1024.5
20211025122741 49 28 1.0 1.0 0.00 0.00 0.00 43 1024.7
20211025122240 49 14 0.0 1.0 0.00 0.00 0.00 43 1024.8
20211025121240 49 325 0.0 1.0 0.00 0.00 0.00 43 1024.9
20211025120739 48 351 0.0 1.0 0.00 0.00 0.00 44 1024.8
20211025120240 48 325 0.0 0.0 0.00 0.00 0.00 44 1024.9
20211025115740 48 355 0.0 0.0 0.00 0.00 0.00 44 1024.9
20211025115240 48 319 0.0 0.0 0.00 0.00 0.00 44 1024.9
20211025114740 48 319 0.0 0.0 0.00 0.00 0.00 44 1024.9
20211025114239 49 319 0.0 0.0 0.00 0.00 0.00 43 1024.9
20211025113739 49 319 0.0 0.0 0.00 0.00 0.00 43 1024.9
20211025113239 49 319 0.0 0.0 0.00 0.00 0.00 43 1024.9
20211025112744 49 319 0.0 0.0 0.00 0.00 0.00 43 1024.9
20211025112240 49 274 0.0 0.0 0.00 0.00 0.00 43 1024.9
20211025111741 49 274 0.0 0.0 0.00 0.00 0.00 43 1024.9
20211025111258 49 266 0.0 0.0 0.00 0.00 0.00 43 1024.9
20211025110739 49 267 0.0 0.0 0.00 0.00 0.00 43 1024.9
20211025110240 49 245 0.0 0.0 0.00 0.00 0.00 44 1024.9
20211025105207 47 263 0.0 0.0 0.00 0.00 0.00 46 1024.9
20211025104707 47 256 0.0 0.0 0.00 0.00 0.00 45 1025.0
20211025104206 48 266 0.0 0.0 0.00 0.00 0.00 44 1025.0
20211025103706 47 258 0.0 0.0 0.00 0.00 0.00 46 1025.0
20211025103231 46 258 0.0 0.0 0.00 0.00 0.00 47 1025.2
20211025102734 46 259 0.0 0.0 0.00 0.00 0.00 48 1025.2
20211025102208 46 327 0.0 0.0 0.00 0.00 0.00 47 1025.3
20211025101706 47 328 0.0 1.0 0.00 0.00 0.00 46 1025.3
20211025101234 47 114 0.0 0.0 0.00 0.00 0.00 44 1025.5
20211025100707 48 114 0.0 0.0 0.00 0.00 0.00 44 1025.5
20211025100254 48 114 0.0 0.0 0.00 0.00 0.00 44 1025.5
20211025095707 49 114 0.0 0.0 0.00 0.00 0.00 43 1025.5
20211025095207 50 114 0.0 1.0 0.00 0.00 0.00 42 1025.5
20211025094707 51 112 0.0 1.0 0.00 0.00 0.00 41 1025.5
20211025094206 51 107 0.0 2.0 0.00 0.00 0.00 41 1025.6
20211025093724 51 204 0.0 0.0 0.00 0.00 0.00 41 1025.7
20211025093206 51 242 0.0 0.0 0.00 0.00 0.00 41 1025.7
20211025092708 51 203 0.0 0.0 0.00 0.00 0.00 41 1025.8
20211025092206 51 177 0.0 1.0 0.00 0.00 0.00 40 1025.9
20211025091722 51 263 1.0 1.0 0.00 0.00 0.00 41 1026.0
20211025091207 51 248 0.0 0.0 0.00 0.00 0.00 41 1026.1
20211025090707 51 256 0.0 0.0 0.00 0.00 0.00 41 1026.2
20211025090206 51 247 0.0 0.0 0.00 0.00 0.00 41 1026.3
20211025085707 50 253 0.0 0.0 0.00 0.00 0.00 42 1026.4
20211025085206 49 252 0.0 0.0 0.00 0.00 0.00 42 1026.5
20211025084719 49 252 0.0 1.0 0.00 0.00 0.00 42 1026.5
20211025084240 50 228 0.0 0.0 0.00 0.00 0.00 42 1026.6
20211025083707 49 232 0.0 0.0 0.00 0.00 0.00 43 1026.5
20211025083207 50 241 0.0 1.0 0.00 0.00 0.00 42 1026.5
20211025082708 50 248 0.0 1.0 0.00 0.00 0.00 42 1026.5
20211025081725 51 258 0.0 0.0 0.00 0.00 0.00 40 1026.6
20211025081257 52 258 0.0 0.0 0.00 0.00 0.00 40 1026.5
20211025080728 51 290 0.0 1.0 0.00 0.00 0.00 40 1026.5
20211025080235 52 270 0.0 0.0 0.00 0.00 0.00 39 1026.5
20211025075726 52 82 0.0 0.0 0.00 0.00 0.00 37 1026.5
20211025075225 53 115 0.0 0.0 0.00 0.00 0.00 37 1026.5
20211025074725 54 194 0.0 0.0 0.00 0.00 0.00 36 1026.5
20211025074226 55 44 0.0 13.0 0.00 0.00 0.00 36 1026.4
20211025073725 55 352 3.0 8.0 0.00 0.00 0.00 36 1026.3
20211025073226 54 314 4.0 11.0 0.00 0.00 0.00 36 1026.3
20211025072725 54 340 0.0 5.0 0.00 0.00 0.00 36 1026.5
20211025072225 54 321 2.0 2.0 0.00 0.00 0.00 36 1026.4
20211025071726 54 266 0.0 0.0 0.00 0.00 0.00 35 1026.4
20211025071225 54 89 0.0 1.0 0.00 0.00 0.00 34 1026.4
20211025070725 55 319 0.0 1.0 0.00 0.00 0.00 34 1026.4
20211025070225 56 298 0.0 5.0 0.00 0.00 0.00 33 1026.3
20211025065725 56 330 4.0 8.0 0.00 0.00 0.00 33 1026.2
20211025065225 56 310 1.0 7.0 0.00 0.00 0.00 33 1026.3
20211025064917 56 316 2.0 9.0 0.00 0.00 0.00 33 1026.3
20211025064257 55 53 3.0 11.0 0.00 0.00 0.00 33 1026.3
20211025063758 54 238 0.0 7.0 0.00 0.00 0.00 34 1026.4
20211025063257 54 294 0.0 11.0 0.00 0.00 0.00 33 1026.4
20211025062758 54 308 5.0 9.0 0.00 0.00 0.00 34 1026.4
20211025062258 55 50 0.0 11.0 0.00 0.00 0.00 33 1026.2
20211025061757 54 255 4.0 12.0 0.00 0.00 0.00 33 1026.2
20211025061257 53 218 0.0 8.0 0.00 0.00 0.00 35 1026.2
20211025060758 53 256 0.0 4.0 0.00 0.00 0.00 35 1026.4
20211025060302 53 263 1.0 4.0 0.00 0.00 0.00 35 1026.4
20211025055839 54 324 0.0 4.0 0.00 0.00 0.00 35 1026.6
20211025055257 54 256 0.0 5.0 0.00 0.00 0.00 34 1026.5
20211025054812 54 259 5.0 6.0 0.00 0.00 0.00 34 1026.6
20211025054257 54 293 2.0 6.0 0.00 0.00 0.00 35 1026.5
20211025053825 54 253 0.0 6.0 0.00 0.00 0.00 35 1026.6
20211025053257 54 246 2.0 7.0 0.00 0.00 0.00 35 1026.6
20211025052757 54 250 1.0 7.0 0.00 0.00 0.00 34 1026.6
20211025052317 55 276 0.0 7.0 0.00 0.00 0.00 34 1026.6
20211025051757 55 276 4.0 10.0 0.00 0.00 0.00 33 1026.6
20211025051257 55 250 1.0 7.0 0.00 0.00 0.00 33 1026.5
20211025050834 56 297 0.0 9.0 0.00 0.00 0.00 33 1026.5
20211025050326 55 249 2.0 12.0 0.00 0.00 0.00 33 1026.6
20211025045757 56 258 2.0 8.0 0.00 0.00 0.00 33 1026.7
20211025045257 55 273 7.0 9.0 0.00 0.00 0.00 33 1026.7
20211025044757 55 242 7.0 9.0 0.00 0.00 0.00 34 1026.7
20211025044257 55 256 5.0 7.0 0.00 0.00 0.00 34 1026.7
20211025043757 55 252 0.0 6.0 0.00 0.00 0.00 34 1026.7
20211025043259 54 284 3.0 6.0 0.00 0.00 0.00 35 1026.7
20211025042757 54 236 2.0 5.0 0.00 0.00 0.00 35 1026.7
20211025042257 54 250 0.0 3.0 0.00 0.00 0.00 35 1026.6
20211025041759 54 251 1.0 2.0 0.00 0.00 0.00 35 1026.6
20211025041257 54 248 0.0 1.0 0.00 0.00 0.00 35 1026.5
20211025040757 55 250 0.0 5.0 0.00 0.00 0.00 34 1026.4
20211025040258 55 262 0.0 5.0 0.00 0.00 0.00 34 1026.4
20211025035802 54 234 2.0 5.0 0.00 0.00 0.00 34 1026.3
20211025035259 55 241 3.0 5.0 0.00 0.00 0.00 34 1026.2
20211025034802 55 245 1.0 4.0 0.00 0.00 0.00 34 1026.2
20211025034257 54 235 0.0 1.0 0.00 0.00 0.00 34 1026.2
20211025033802 54 250 0.0 1.0 0.00 0.00 0.00 34 1026.0
20211025033304 54 238 0.0 1.0 0.00 0.00 0.00 34 1026.0
20211025032757 54 252 0.0 1.0 0.00 0.00 0.00 34 1026.0
20211025032348 54 234 0.0 3.0 0.00 0.00 0.00 34 1026.0
20211025031757 54 262 0.0 1.0 0.00 0.00 0.00 34 1025.9
20211025031257 54 258 0.0 2.0 0.00 0.00 0.00 34 1025.7
20211025030802 54 242 0.0 2.0 0.00 0.00 0.00 34 1025.7
20211025030302 54 241 0.0 1.0 0.00 0.00 0.00 34 1025.7
20211025025802 54 245 0.0 3.0 0.00 0.00 0.00 34 1025.6
20211025025305 54 304 2.0 2.0 0.00 0.00 0.00 34 1025.4
20211025024757 54 229 0.0 2.0 0.00 0.00 0.00 34 1025.1
20211025024257 54 225 0.0 1.0 0.00 0.00 0.00 34 1025.0
20211025023757 54 246 0.0 1.0 0.00 0.00 0.00 34 1025.0
20211025023257 54 248 0.0 1.0 0.00 0.00 0.00 34 1025.0
20211025022802 55 250 0.0 1.0 0.00 0.00 0.00 34 1024.9
20211025022257 55 250 0.0 2.0 0.00 0.00 0.00 33 1024.8
20211025021757 54 248 0.0 1.0 0.00 0.00 0.00 33 1024.7
20211025021257 54 255 0.0 1.0 0.00 0.00 0.00 33 1024.5
20211025020757 55 238 0.0 1.0 0.00 0.00 0.00 33 1024.4
20211025020257 55 249 0.0 1.0 0.00 0.00 0.00 33 1024.4
20211025015757 55 233 0.0 3.0 0.00 0.00 0.00 32 1024.2
20211025015257 55 245 2.0 2.0 0.00 0.00 0.00 33 1024.1
20211025014757 55 243 0.0 3.0 0.00 0.00 0.00 33 1024.1
20211025014349 55 253 0.0 2.0 0.00 0.00 0.00 34 1024.0
20211025013739 55 241 1.0 2.0 0.00 0.00 0.00 34 1023.9
20211025013234 55 242 1.0 2.0 0.00 0.00 0.00 35 1023.8
20211025012825 56 253 1.0 1.0 0.00 0.00 0.00 34 1023.7
20211025012234 56 249 0.0 1.0 0.00 0.00 0.00 34 1023.6
20211025011749 56 253 0.0 2.0 0.00 0.00 0.00 34 1023.5
20211025011234 56 273 1.0 4.0 0.00 0.00 0.00 35 1023.5
20211025010734 56 252 0.0 1.0 0.00 0.00 0.00 34 1023.3
20211025010239 56 241 0.0 1.0 0.00 0.00 0.00 35 1023.3
20211025005739 56 234 0.0 1.0 0.00 0.00 0.00 34 1023.2
20211025005306 56 239 0.0 1.0 0.00 0.00 0.00 35 1023.0
20211025004744 57 246 0.0 1.0 0.00 0.00 0.00 34 1023.0
20211025004300 57 258 0.0 1.0 0.00 0.00 0.00 34 1022.9
20211025003750 57 271 0.0 1.0 0.00 0.00 0.00 34 1022.9
20211025003306 57 252 0.0 5.0 0.00 0.00 0.00 34 1022.8
20211025002734 57 242 0.0 3.0 0.00 0.00 0.00 33 1022.8
20211025002320 57 224 0.0 3.0 0.00 0.00 0.00 33 1022.7
20211025001734 58 250 0.0 2.0 0.00 0.00 0.00 32 1022.7
20211025001234 58 259 0.0 2.0 0.00 0.00 0.00 32 1022.6
20211025000739 58 276 0.0 5.0 0.00 0.00 0.00 31 1022.5
20211024235718 59 293 1.0 5.0 0.00 0.00 0.00 29 1022.5
20211024235240 59 246 2.0 6.0 0.00 0.00 0.00 28 1022.3
20211024234714 60 26 2.0 8.0 0.00 0.00 0.00 28 1022.3
20211024234213 61 233 0.0 8.0 0.00 0.00 0.00 27 1022.2
20211024233712 61 245 1.0 10.0 0.00 0.00 0.00 26 1022.2
20211024233219 62 308 1.0 8.0 0.00 0.00 0.00 27 1022.0
20211024232712 62 243 6.0 13.0 0.00 0.00 0.00 26 1022.0
20211024232212 62 260 4.0 13.0 0.00 0.00 0.00 25 1021.9
20211024231732 63 266 3.0 12.0 0.00 0.00 0.00 26 1021.7